owner,sensor,date,latitude,longitude,vertical_datum,sea_water_temperature,qcFlag
Beacon,ioos:station:wmo:42874:2,2021-11-01T00:02:00Z,27.0314,-90.9904,30.0,27.3,11111222
Beacon,ioos:station:wmo:42874:2,2021-11-01T00:11:00Z,27.0314,-90.9904,30.0,27.2,11111222
Beacon,ioos:station:wmo:42874:2,2021-11-01T00:21:00Z,27.0314,-90.9904,30.0,27.2,11111222
Beacon,ioos:station:wmo:42874:2,2021-11-01T00:32:00Z,27.0314,-90.9904,30.0,27.2,11111222
Beacon,ioos:station:wmo:42874:2,2021-11-01T00:41:00Z,27.0314,-90.9904,30.0,27.2,11111222
Beacon,ioos:station:wmo:42874:2,2021-11-01T00:50:00Z,27.0314,-90.9904,30.0,27.2,11111222
Beacon,ioos:station:wmo:42874:2,2021-11-01T01:01:00Z,27.0312,-90.9908,30.0,27.2,11111222
Beacon,ioos:station:wmo:42874:2,2021-11-01T01:12:00Z,27.0312,-90.9908,30.0,27.2,11111222
Beacon,ioos:station:wmo:42874:2,2021-11-01T01:21:00Z,27.0312,-90.9908,30.0,27.2,11111222
Beacon,ioos:station:wmo:42874:2,2021-11-01T01:32:00Z,27.0312,-90.9908,30.0,27.2,11111222
Beacon,ioos:station:wmo:42874:2,2021-11-01T01:41:00Z,27.0316,-90.9903,30.0,27.2,11111222
Beacon,ioos:station:wmo:42874:2,2021-11-01T01:52:00Z,27.0316,-90.9903,30.0,27.2,11111222
Beacon,ioos:station:wmo:42874:2,2021-11-01T02:02:00Z,27.0316,-90.9903,30.0,27.2,11111222
Beacon,ioos:station:wmo:42874:2,2021-11-01T02:12:00Z,27.0315,-90.9903,30.0,27.2,11111222
Beacon,ioos:station:wmo:42874:2,2021-11-01T02:22:00Z,27.0315,-90.9902,30.0,27.2,11111222
Beacon,ioos:station:wmo:42874:2,2021-11-01T02:32:00Z,27.0315,-90.9902,30.0,27.2,11111222
Beacon,ioos:station:wmo:42874:2,2021-11-01T02:42:00Z,27.0315,-90.9902,30.0,27.2,11111222
Beacon,ioos:station:wmo:42874:2,2021-11-01T02:51:00Z,27.0315,-90.9903,30.0,27.2,11111222
Beacon,ioos:station:wmo:42874:2,2021-11-01T03:01:00Z,27.0315,-90.9903,30.0,27.2,11111222
Beacon,ioos:station:wmo:42874:2,2021-11-01T03:11:00Z,27.0315,-90.9903,30.0,27.2,11111222
Beacon,ioos:station:wmo:42874:2,2021-11-01T03:21:00Z,27.0315,-90.9904,30.0,27.2,11111222
Beacon,ioos:station:wmo:42874:2,2021-11-01T03:31:00Z,27.0315,-90.9904,30.0,27.2,11111222
Beacon,ioos:station:wmo:42874:2,2021-11-01T03:41:00Z,27.0315,-90.9904,30.0,27.2,11111222
Beacon,ioos:station:wmo:42874:2,2021-11-01T03:51:00Z,27.0315,-90.9904,30.0,27.2,11111222
Beacon,ioos:station:wmo:42874:2,2021-11-01T04:01:00Z,27.0315,-90.9904,30.0,27.1,11111222
Beacon,ioos:station:wmo:42874:2,2021-11-01T04:12:00Z,27.0315,-90.9904,30.0,27.1,11111222
Beacon,ioos:station:wmo:42874:2,2021-11-01T04:21:00Z,27.0315,-90.9904,30.0,27.1,11111222
Beacon,ioos:station:wmo:42874:2,2021-11-01T04:31:00Z,27.0315,-90.9903,30.0,27.1,11111222
Beacon,ioos:station:wmo:42874:2,2021-11-01T04:41:00Z,27.0315,-90.9903,30.0,27.1,11111222
Beacon,ioos:station:wmo:42874:2,2021-11-01T04:50:00Z,27.0315,-90.9903,30.0,27.1,11111222
Beacon,ioos:station:wmo:42874:2,2021-11-01T05:01:00Z,27.0315,-90.9903,30.0,27.1,11111222
Beacon,ioos:station:wmo:42874:2,2021-11-01T05:12:00Z,27.0315,-90.9903,30.0,27.1,11111222
Beacon,ioos:station:wmo:42874:2,2021-11-01T05:22:00Z,27.0315,-90.9903,30.0,27.1,11111222
Beacon,ioos:station:wmo:42874:2,2021-11-01T05:31:00Z,27.0315,-90.9903,30.0,27.1,11111222
Beacon,ioos:station:wmo:42874:2,2021-11-01T05:42:00Z,27.0315,-90.9903,30.0,27.1,11111222
Beacon,ioos:station:wmo:42874:2,2021-11-01T05:50:00Z,27.0315,-90.9903,30.0,27.1,11111222
Beacon,ioos:station:wmo:42874:2,2021-11-01T06:02:00Z,27.0315,-90.9903,30.0,27.1,11111222
Beacon,ioos:station:wmo:42874:2,2021-11-01T06:11:00Z,27.0315,-90.9903,30.0,27.1,11111222
Beacon,ioos:station:wmo:42874:2,2021-11-01T06:22:00Z,27.0315,-90.9903,30.0,27.1,11111222
Beacon,ioos:station:wmo:42874:2,2021-11-01T06:32:00Z,27.0315,-90.9903,30.0,27.2,11111222
Beacon,ioos:station:wmo:42874:2,2021-11-01T06:42:00Z,27.0315,-90.9903,30.0,27.2,11111222
Beacon,ioos:station:wmo:42874:2,2021-11-01T06:52:00Z,27.0315,-90.9903,30.0,27.2,11111222
Beacon,ioos:station:wmo:42874:2,2021-11-01T07:02:00Z,27.0315,-90.9903,30.0,27.2,11111222
Beacon,ioos:station:wmo:42874:2,2021-11-01T07:13:00Z,27.0315,-90.9903,30.0,27.2,11111222
Beacon,ioos:station:wmo:42874:2,2021-11-01T07:23:00Z,27.0315,-90.9903,30.0,27.2,11111222
Beacon,ioos:station:wmo:42874:2,2021-11-01T07:32:00Z,27.0314,-90.9903,30.0,27.2,11111222
Beacon,ioos:station:wmo:42874:2,2021-11-01T07:42:00Z,27.0315,-90.9903,30.0,27.2,11111222
Beacon,ioos:station:wmo:42874:2,2021-11-01T07:52:00Z,27.0315,-90.9903,30.0,27.2,11111222
Beacon,ioos:station:wmo:42874:2,2021-11-01T08:02:00Z,27.0315,-90.9903,30.0,27.2,11111222
Beacon,ioos:station:wmo:42874:2,2021-11-01T08:12:00Z,27.0315,-90.9903,30.0,27.2,11111222
Beacon,ioos:station:wmo:42874:2,2021-11-01T08:22:00Z,27.0315,-90.9903,30.0,27.2,11111222
Beacon,ioos:station:wmo:42874:2,2021-11-01T08:33:00Z,27.0315,-90.9903,30.0,27.2,11111222
Beacon,ioos:station:wmo:42874:2,2021-11-01T08:42:00Z,27.0315,-90.9903,30.0,27.2,11111222
Beacon,ioos:station:wmo:42874:2,2021-11-01T08:52:00Z,27.0315,-90.9902,30.0,27.2,11111222
Beacon,ioos:station:wmo:42874:2,2021-11-01T09:02:00Z,27.0315,-90.9902,30.0,27.2,11111222
Beacon,ioos:station:wmo:42874:2,2021-11-01T09:11:00Z,27.0315,-90.9902,30.0,27.2,11111222
Beacon,ioos:station:wmo:42874:2,2021-11-01T09:22:00Z,27.0315,-90.9902,30.0,27.2,11111222
Beacon,ioos:station:wmo:42874:2,2021-11-01T09:32:00Z,27.0315,-90.9904,30.0,27.2,11111222
Beacon,ioos:station:wmo:42874:2,2021-11-01T09:41:00Z,27.0315,-90.9904,30.0,27.2,11111222
Beacon,ioos:station:wmo:42874:2,2021-11-01T09:52:00Z,27.0315,-90.9904,30.0,27.2,11111222
Beacon,ioos:station:wmo:42874:2,2021-11-01T10:02:00Z,27.0315,-90.9904,30.0,27.2,11111222
Beacon,ioos:station:wmo:42874:2,2021-11-01T10:13:00Z,27.0315,-90.9904,30.0,27.2,11111222
Beacon,ioos:station:wmo:42874:2,2021-11-01T10:22:00Z,27.0315,-90.9903,30.0,27.2,11111222
Beacon,ioos:station:wmo:42874:2,2021-11-01T10:32:00Z,27.0315,-90.9902,30.0,27.2,11111222
Beacon,ioos:station:wmo:42874:2,2021-11-01T10:42:00Z,27.0314,-90.9902,30.0,27.2,11111222
Beacon,ioos:station:wmo:42874:2,2021-11-01T10:52:00Z,27.0314,-90.9902,30.0,27.2,11111222
Beacon,ioos:station:wmo:42874:2,2021-11-01T11:02:00Z,27.0314,-90.9902,30.0,27.2,11111222
Beacon,ioos:station:wmo:42874:2,2021-11-01T11:12:00Z,27.0314,-90.9902,30.0,27.2,11111222
Beacon,ioos:station:wmo:42874:2,2021-11-01T11:22:00Z,27.0314,-90.9902,30.0,27.2,11111222
Beacon,ioos:station:wmo:42874:2,2021-11-01T11:31:00Z,27.0314,-90.9902,30.0,27.2,11111222
Beacon,ioos:station:wmo:42874:2,2021-11-01T11:43:00Z,27.0315,-90.9902,30.0,27.2,11111222
Beacon,ioos:station:wmo:42874:2,2021-11-01T11:52:00Z,27.0315,-90.9902,30.0,27.2,11111222
Beacon,ioos:station:wmo:42874:2,2021-11-01T12:02:00Z,27.0315,-90.9902,30.0,27.2,11111222
Beacon,ioos:station:wmo:42874:2,2021-11-01T12:12:00Z,27.0315,-90.9902,30.0,27.3,11111222
Beacon,ioos:station:wmo:42874:2,2021-11-01T12:22:00Z,27.0315,-90.9902,30.0,27.2,11111222
Beacon,ioos:station:wmo:42874:2,2021-11-01T12:33:00Z,27.0315,-90.9902,30.0,27.3,11111222
Beacon,ioos:station:wmo:42874:2,2021-11-01T12:43:00Z,27.0315,-90.9902,30.0,27.3,11111222
Beacon,ioos:station:wmo:42874:2,2021-11-01T12:52:00Z,27.0315,-90.9902,30.0,27.3,11111222
Beacon,ioos:station:wmo:42874:2,2021-11-01T13:02:00Z,27.0315,-90.9902,30.0,27.3,11111222
Beacon,ioos:station:wmo:42874:2,2021-11-01T13:12:00Z,27.0315,-90.9902,30.0,27.3,11111222
Beacon,ioos:station:wmo:42874:2,2021-11-01T13:22:00Z,27.0315,-90.9902,30.0,27.3,11111222
Beacon,ioos:station:wmo:42874:2,2021-11-01T13:32:00Z,27.0315,-90.9903,30.0,27.3,11111222
Beacon,ioos:station:wmo:42874:2,2021-11-01T13:42:00Z,27.0315,-90.9903,30.0,27.3,11111222
Beacon,ioos:station:wmo:42874:2,2021-11-01T13:52:00Z,27.0315,-90.9904,30.0,27.3,11111222
Beacon,ioos:station:wmo:42874:2,2021-11-01T14:02:00Z,27.0315,-90.9904,30.0,27.3,11111222
Beacon,ioos:station:wmo:42874:2,2021-11-01T14:12:00Z,27.0315,-90.9904,30.0,27.3,11111222
Beacon,ioos:station:wmo:42874:2,2021-11-01T14:22:00Z,27.0315,-90.9905,30.0,27.3,11111222
Beacon,ioos:station:wmo:42874:2,2021-11-01T14:32:00Z,27.0315,-90.9905,30.0,27.3,11111222
Beacon,ioos:station:wmo:42874:2,2021-11-01T14:42:00Z,27.0315,-90.9904,30.0,27.3,11111222
Beacon,ioos:station:wmo:42874:2,2021-11-01T14:51:00Z,27.0315,-90.9905,30.0,27.3,11111222
Beacon,ioos:station:wmo:42874:2,2021-11-01T15:02:00Z,27.0315,-90.9904,30.0,27.3,11111222
Beacon,ioos:station:wmo:42874:2,2021-11-01T15:12:00Z,27.0315,-90.9904,30.0,27.3,11111222
Beacon,ioos:station:wmo:42874:2,2021-11-01T15:23:00Z,27.0315,-90.9904,30.0,27.3,11111222
Beacon,ioos:station:wmo:42874:2,2021-11-01T15:32:00Z,27.0315,-90.9903,30.0,27.3,11111222
Beacon,ioos:station:wmo:42874:2,2021-11-01T15:42:00Z,27.0315,-90.9903,30.0,27.3,11111222
Beacon,ioos:station:wmo:42874:2,2021-11-01T15:52:00Z,27.0315,-90.9903,30.0,27.3,11111222
Beacon,ioos:station:wmo:42874:2,2021-11-01T16:02:00Z,27.0315,-90.9903,30.0,27.3,11111222
Beacon,ioos:station:wmo:42874:2,2021-11-01T16:12:00Z,27.0315,-90.9903,30.0,27.2,11111222
Beacon,ioos:station:wmo:42874:2,2021-11-01T16:22:00Z,27.0315,-90.9903,30.0,27.3,11111222
Beacon,ioos:station:wmo:42874:2,2021-11-01T16:32:00Z,27.0315,-90.9903,30.0,27.3,11111222
Beacon,ioos:station:wmo:42874:2,2021-11-01T16:42:00Z,27.0315,-90.9904,30.0,27.2,11111222
Beacon,ioos:station:wmo:42874:2,2021-11-01T16:52:00Z,27.0315,-90.9904,30.0,27.2,11111222
Beacon,ioos:station:wmo:42874:2,2021-11-01T17:02:00Z,27.0315,-90.9904,30.0,27.2,11111222
Beacon,ioos:station:wmo:42874:2,2021-11-01T17:11:00Z,27.0315,-90.9904,30.0,27.2,11111222
Beacon,ioos:station:wmo:42874:2,2021-11-01T17:22:00Z,27.0315,-90.9903,30.0,27.2,11111222
Beacon,ioos:station:wmo:42874:2,2021-11-01T17:31:00Z,27.0314,-90.9903,30.0,27.2,11111222
Beacon,ioos:station:wmo:42874:2,2021-11-01T17:42:00Z,27.0314,-90.9903,30.0,27.2,11111222
Beacon,ioos:station:wmo:42874:2,2021-11-01T17:52:00Z,27.0315,-90.9902,30.0,27.2,11111222
Beacon,ioos:station:wmo:42874:2,2021-11-01T18:02:00Z,27.0315,-90.9902,30.0,27.2,11111222
Beacon,ioos:station:wmo:42874:2,2021-11-01T18:12:00Z,27.0315,-90.9902,30.0,27.2,11111222
Beacon,ioos:station:wmo:42874:2,2021-11-01T18:22:00Z,27.0315,-90.9902,30.0,27.2,11111222
Beacon,ioos:station:wmo:42874:2,2021-11-01T18:32:00Z,27.0314,-90.9902,30.0,27.2,11111222
Beacon,ioos:station:wmo:42874:2,2021-11-01T18:41:00Z,27.0315,-90.9903,30.0,27.2,11111222
Beacon,ioos:station:wmo:42874:2,2021-11-01T18:51:00Z,27.0315,-90.9904,30.0,27.2,11111222
Beacon,ioos:station:wmo:42874:2,2021-11-01T19:02:00Z,27.0315,-90.9904,30.0,27.2,11111222
Beacon,ioos:station:wmo:42874:2,2021-11-01T19:12:00Z,27.0315,-90.9904,30.0,27.2,11111222
Beacon,ioos:station:wmo:42874:2,2021-11-01T19:22:00Z,27.0315,-90.9904,30.0,27.2,11111222
Beacon,ioos:station:wmo:42874:2,2021-11-01T19:32:00Z,27.0315,-90.9904,30.0,27.2,11111222
Beacon,ioos:station:wmo:42874:2,2021-11-01T19:42:00Z,27.0315,-90.9904,30.0,27.2,11111222
Beacon,ioos:station:wmo:42874:2,2021-11-01T19:52:00Z,27.0315,-90.9903,30.0,27.2,11111222
Beacon,ioos:station:wmo:42874:2,2021-11-01T20:02:00Z,27.0315,-90.9903,30.0,27.2,11111222
Beacon,ioos:station:wmo:42874:2,2021-11-01T20:12:00Z,27.0315,-90.9903,30.0,27.2,11111222
Beacon,ioos:station:wmo:42874:2,2021-11-01T20:21:00Z,27.0315,-90.9903,30.0,27.2,11111222
Beacon,ioos:station:wmo:42874:2,2021-11-01T20:31:00Z,27.0315,-90.9903,30.0,27.2,11111222
Beacon,ioos:station:wmo:42874:2,2021-11-01T20:42:00Z,27.0315,-90.9903,30.0,27.2,11111222
Beacon,ioos:station:wmo:42874:2,2021-11-01T20:52:00Z,27.0314,-90.9903,30.0,27.2,11111222
Beacon,ioos:station:wmo:42874:2,2021-11-01T21:03:00Z,27.0314,-90.9903,30.0,27.2,11111222
Beacon,ioos:station:wmo:42874:2,2021-11-01T21:12:00Z,27.0314,-90.9903,30.0,27.2,11111222
Beacon,ioos:station:wmo:42874:2,2021-11-01T21:22:00Z,27.0315,-90.9904,30.0,27.2,11111222
Beacon,ioos:station:wmo:42874:2,2021-11-01T21:31:00Z,27.0315,-90.9903,30.0,27.2,11111222
Beacon,ioos:station:wmo:42874:2,2021-11-01T21:42:00Z,27.0315,-90.9904,30.0,27.1,11111222
Beacon,ioos:station:wmo:42874:2,2021-11-01T21:52:00Z,27.0315,-90.9904,30.0,27.2,11111222
Beacon,ioos:station:wmo:42874:2,2021-11-01T22:02:00Z,27.0315,-90.9904,30.0,27.2,11111222
Beacon,ioos:station:wmo:42874:2,2021-11-01T22:12:00Z,27.0315,-90.9904,30.0,27.1,11111222
Beacon,ioos:station:wmo:42874:2,2021-11-01T22:22:00Z,27.0315,-90.9904,30.0,27.2,11111222
Beacon,ioos:station:wmo:42874:2,2021-11-01T22:32:00Z,27.0315,-90.9908,30.0,27.2,11111222
Beacon,ioos:station:wmo:42874:2,2021-11-01T22:41:00Z,27.0315,-90.9908,30.0,27.1,11111222
Beacon,ioos:station:wmo:42874:2,2021-11-01T22:51:00Z,27.0315,-90.9908,30.0,27.2,11111222
Beacon,ioos:station:wmo:42874:2,2021-11-01T23:01:00Z,27.0315,-90.9905,30.0,27.2,11111222
Beacon,ioos:station:wmo:42874:2,2021-11-01T23:12:00Z,27.0314,-90.9905,30.0,27.2,11111222
Beacon,ioos:station:wmo:42874:2,2021-11-01T23:21:00Z,27.0314,-90.9904,30.0,27.2,11111222
Beacon,ioos:station:wmo:42874:2,2021-11-01T23:31:00Z,27.0314,-90.9904,30.0,27.2,11111222
Beacon,ioos:station:wmo:42874:2,2021-11-01T23:42:00Z,27.0314,-90.9904,30.0,27.2,11111222
Beacon,ioos:station:wmo:42874:2,2021-11-01T23:53:00Z,27.0314,-90.9904,30.0,27.2,11111222
Beacon,ioos:station:wmo:42874:2,2021-11-02T00:02:00Z,27.0314,-90.9903,30.0,27.2,11111222
Beacon,ioos:station:wmo:42874:2,2021-11-02T00:12:00Z,27.0314,-90.9903,30.0,27.2,11111222
Beacon,ioos:station:wmo:42874:2,2021-11-02T00:22:00Z,27.0314,-90.9903,30.0,27.2,11111222
Beacon,ioos:station:wmo:42874:2,2021-11-02T00:31:00Z,27.0313,-90.9905,30.0,27.2,11111222
Beacon,ioos:station:wmo:42874:2,2021-11-02T00:42:00Z,27.0313,-90.9905,30.0,27.2,11111222
Beacon,ioos:station:wmo:42874:2,2021-11-02T00:51:00Z,27.0313,-90.9905,30.0,27.2,11111222
Beacon,ioos:station:wmo:42874:2,2021-11-02T01:01:00Z,27.0314,-90.9902,30.0,27.2,11111222
Beacon,ioos:station:wmo:42874:2,2021-11-02T01:12:00Z,27.0319,-90.9892,30.0,27.2,11111222
Beacon,ioos:station:wmo:42874:2,2021-11-02T01:22:00Z,27.0319,-90.9892,30.0,27.2,11111222
Beacon,ioos:station:wmo:42874:2,2021-11-02T01:32:00Z,27.0315,-90.9898,30.0,27.2,11111222
Beacon,ioos:station:wmo:42874:2,2021-11-02T01:42:00Z,27.0315,-90.9898,30.0,27.2,11111222
Beacon,ioos:station:wmo:42874:2,2021-11-02T01:52:00Z,27.0315,-90.9899,30.0,27.2,11111222
Beacon,ioos:station:wmo:42874:2,2021-11-02T02:03:00Z,27.0315,-90.9900,30.0,27.2,11111222
Beacon,ioos:station:wmo:42874:2,2021-11-02T02:12:00Z,27.0315,-90.9901,30.0,27.2,11111222
Beacon,ioos:station:wmo:42874:2,2021-11-02T02:23:00Z,27.0315,-90.9902,30.0,27.2,11111222
Beacon,ioos:station:wmo:42874:2,2021-11-02T02:32:00Z,27.0315,-90.9902,30.0,27.2,11111222
Beacon,ioos:station:wmo:42874:2,2021-11-02T02:42:00Z,27.0315,-90.9902,30.0,27.2,11111222
Beacon,ioos:station:wmo:42874:2,2021-11-02T02:52:00Z,27.0315,-90.9903,30.0,27.3,11111222
Beacon,ioos:station:wmo:42874:2,2021-11-02T03:02:00Z,27.0315,-90.9904,30.0,27.3,11111222
Beacon,ioos:station:wmo:42874:2,2021-11-02T03:12:00Z,27.0315,-90.9904,30.0,27.3,11111222
Beacon,ioos:station:wmo:42874:2,2021-11-02T03:22:00Z,27.0315,-90.9904,30.0,27.3,11111222
Beacon,ioos:station:wmo:42874:2,2021-11-02T03:32:00Z,27.0315,-90.9904,30.0,27.3,11111222
Beacon,ioos:station:wmo:42874:2,2021-11-02T03:42:00Z,27.0315,-90.9904,30.0,27.3,11111222
Beacon,ioos:station:wmo:42874:2,2021-11-02T03:52:00Z,27.0315,-90.9904,30.0,27.3,11111222
Beacon,ioos:station:wmo:42874:2,2021-11-02T04:02:00Z,27.0315,-90.9904,30.0,27.4,11111222
Beacon,ioos:station:wmo:42874:2,2021-11-02T04:12:00Z,27.0315,-90.9904,30.0,27.3,11111222
Beacon,ioos:station:wmo:42874:2,2021-11-02T04:22:00Z,27.0315,-90.9903,30.0,27.3,11111222
Beacon,ioos:station:wmo:42874:2,2021-11-02T04:32:00Z,27.0315,-90.9903,30.0,27.3,11111222
Beacon,ioos:station:wmo:42874:2,2021-11-02T04:42:00Z,27.0315,-90.9903,30.0,27.3,11111222
Beacon,ioos:station:wmo:42874:2,2021-11-02T04:51:00Z,27.0315,-90.9903,30.0,27.3,11111222
Beacon,ioos:station:wmo:42874:2,2021-11-02T05:03:00Z,27.0315,-90.9903,30.0,27.3,11111222
Beacon,ioos:station:wmo:42874:2,2021-11-02T05:12:00Z,27.0315,-90.9903,30.0,27.3,11111222
Beacon,ioos:station:wmo:42874:2,2021-11-02T05:22:00Z,27.0315,-90.9903,30.0,27.2,11111222
Beacon,ioos:station:wmo:42874:2,2021-11-02T05:32:00Z,27.0315,-90.9903,30.0,27.2,11111222
Beacon,ioos:station:wmo:42874:2,2021-11-02T05:42:00Z,27.0315,-90.9903,30.0,27.2,11111222
Beacon,ioos:station:wmo:42874:2,2021-11-02T05:52:00Z,27.0315,-90.9903,30.0,27.2,11111222
Beacon,ioos:station:wmo:42874:2,2021-11-02T06:01:00Z,27.0315,-90.9903,30.0,27.2,11111222
Beacon,ioos:station:wmo:42874:2,2021-11-02T06:11:00Z,27.0315,-90.9903,30.0,27.2,11111222
Beacon,ioos:station:wmo:42874:2,2021-11-02T06:21:00Z,27.0315,-90.9903,30.0,27.1,11111222
Beacon,ioos:station:wmo:42874:2,2021-11-02T06:31:00Z,27.0315,-90.9903,30.0,27.1,11111222
Beacon,ioos:station:wmo:42874:2,2021-11-02T06:42:00Z,27.0315,-90.9903,30.0,27.1,11111222
Beacon,ioos:station:wmo:42874:2,2021-11-02T06:51:00Z,27.0315,-90.9903,30.0,27.1,11111222
Beacon,ioos:station:wmo:42874:2,2021-11-02T07:01:00Z,27.0315,-90.9903,30.0,27.1,11111222
Beacon,ioos:station:wmo:42874:2,2021-11-02T07:12:00Z,27.0315,-90.9903,30.0,27.1,11111222
Beacon,ioos:station:wmo:42874:2,2021-11-02T07:22:00Z,27.0315,-90.9903,30.0,27.1,11111222
Beacon,ioos:station:wmo:42874:2,2021-11-02T07:31:00Z,27.0314,-90.9903,30.0,27.0,11111222
Beacon,ioos:station:wmo:42874:2,2021-11-02T07:41:00Z,27.0315,-90.9903,30.0,27.0,11111222
Beacon,ioos:station:wmo:42874:2,2021-11-02T07:51:00Z,27.0315,-90.9903,30.0,27.0,11111222
Beacon,ioos:station:wmo:42874:2,2021-11-02T08:01:00Z,27.0315,-90.9903,30.0,27.0,11111222
Beacon,ioos:station:wmo:42874:2,2021-11-02T08:11:00Z,27.0315,-90.9903,30.0,27.0,11111222
Beacon,ioos:station:wmo:42874:2,2021-11-02T08:21:00Z,27.0315,-90.9902,30.0,27.0,11111222
Beacon,ioos:station:wmo:42874:2,2021-11-02T08:31:00Z,27.0315,-90.9903,30.0,27.1,11111222
Beacon,ioos:station:wmo:42874:2,2021-11-02T08:42:00Z,27.0315,-90.9902,30.0,27.1,11111222
Beacon,ioos:station:wmo:42874:2,2021-11-02T08:52:00Z,27.0315,-90.9902,30.0,27.0,11111222
Beacon,ioos:station:wmo:42874:2,2021-11-02T09:02:00Z,27.0315,-90.9903,30.0,27.1,11111222
Beacon,ioos:station:wmo:42874:2,2021-11-02T09:12:00Z,27.0315,-90.9903,30.0,27.1,11111222
Beacon,ioos:station:wmo:42874:2,2021-11-02T09:22:00Z,27.0315,-90.9903,30.0,27.1,11111222
Beacon,ioos:station:wmo:42874:2,2021-11-02T09:32:00Z,27.0315,-90.9904,30.0,27.1,11111222
Beacon,ioos:station:wmo:42874:2,2021-11-02T09:42:00Z,27.0315,-90.9904,30.0,27.1,11111222
Beacon,ioos:station:wmo:42874:2,2021-11-02T09:51:00Z,27.0315,-90.9903,30.0,27.1,11111222
Beacon,ioos:station:wmo:42874:2,2021-11-02T10:01:00Z,27.0315,-90.9903,30.0,27.1,11111222
Beacon,ioos:station:wmo:42874:2,2021-11-02T10:11:00Z,27.0315,-90.9903,30.0,27.1,11111222
Beacon,ioos:station:wmo:42874:2,2021-11-02T10:21:00Z,27.0314,-90.9903,30.0,27.1,11111222
Beacon,ioos:station:wmo:42874:2,2021-11-02T10:32:00Z,27.0312,-90.9905,30.0,27.1,11111222
Beacon,ioos:station:wmo:42874:2,2021-11-02T10:42:00Z,27.0313,-90.9905,30.0,27.1,11111222
Beacon,ioos:station:wmo:42874:2,2021-11-02T10:51:00Z,27.0313,-90.9905,30.0,27.1,11111222
Beacon,ioos:station:wmo:42874:2,2021-11-02T11:02:00Z,27.0314,-90.9903,30.0,27.1,11111222
Beacon,ioos:station:wmo:42874:2,2021-11-02T11:12:00Z,27.0315,-90.9903,30.0,27.1,11111222
Beacon,ioos:station:wmo:42874:2,2021-11-02T11:21:00Z,27.0315,-90.9903,30.0,27.1,11111222
Beacon,ioos:station:wmo:42874:2,2021-11-02T11:30:00Z,27.0315,-90.9903,30.0,27.1,11111222
Beacon,ioos:station:wmo:42874:2,2021-11-02T11:40:00Z,27.0315,-90.9903,30.0,27.1,11111222
Beacon,ioos:station:wmo:42874:2,2021-11-02T11:52:00Z,27.0315,-90.9903,30.0,27.0,11111222
Beacon,ioos:station:wmo:42874:2,2021-11-02T12:02:00Z,27.0315,-90.9903,30.0,27.0,11111222
Beacon,ioos:station:wmo:42874:2,2021-11-02T12:13:00Z,27.0315,-90.9903,30.0,27.0,11111222
Beacon,ioos:station:wmo:42874:2,2021-11-02T12:21:00Z,27.0315,-90.9903,30.0,27.0,11111222
Beacon,ioos:station:wmo:42874:2,2021-11-02T12:31:00Z,27.0315,-90.9903,30.0,27.0,11111222
Beacon,ioos:station:wmo:42874:2,2021-11-02T12:41:00Z,27.0315,-90.9903,30.0,27.0,11111222
Beacon,ioos:station:wmo:42874:2,2021-11-02T12:51:00Z,27.0315,-90.9903,30.0,26.9,11111222
Beacon,ioos:station:wmo:42874:2,2021-11-02T13:01:00Z,27.0315,-90.9903,30.0,26.9,11111222
Beacon,ioos:station:wmo:42874:2,2021-11-02T13:11:00Z,27.0315,-90.9903,30.0,26.9,11111222
Beacon,ioos:station:wmo:42874:2,2021-11-02T13:22:00Z,27.0315,-90.9903,30.0,27.0,11111222
Beacon,ioos:station:wmo:42874:2,2021-11-02T13:31:00Z,27.0315,-90.9903,30.0,27.0,11111222
Beacon,ioos:station:wmo:42874:2,2021-11-02T13:41:00Z,27.0315,-90.9903,30.0,27.0,11111222
Beacon,ioos:station:wmo:42874:2,2021-11-02T13:52:00Z,27.0315,-90.9903,30.0,27.0,11111222
Beacon,ioos:station:wmo:42874:2,2021-11-02T14:01:00Z,27.0315,-90.9904,30.0,27.0,11111222
Beacon,ioos:station:wmo:42874:2,2021-11-02T14:11:00Z,27.0315,-90.9904,30.0,27.0,11111222
Beacon,ioos:station:wmo:42874:2,2021-11-02T14:22:00Z,27.0315,-90.9904,30.0,27.0,11111222
Beacon,ioos:station:wmo:42874:2,2021-11-02T14:31:00Z,27.0315,-90.9905,30.0,27.0,11111222
Beacon,ioos:station:wmo:42874:2,2021-11-02T14:42:00Z,27.0315,-90.9904,30.0,27.0,11111222
Beacon,ioos:station:wmo:42874:2,2021-11-02T14:52:00Z,27.0315,-90.9904,30.0,27.0,11111222
Beacon,ioos:station:wmo:42874:2,2021-11-02T15:02:00Z,27.0315,-90.9904,30.0,27.0,11111222
Beacon,ioos:station:wmo:42874:2,2021-11-02T15:12:00Z,27.0315,-90.9903,30.0,27.0,11111222
Beacon,ioos:station:wmo:42874:2,2021-11-02T15:21:00Z,27.0315,-90.9903,30.0,27.0,11111222
Beacon,ioos:station:wmo:42874:2,2021-11-02T15:31:00Z,27.0315,-90.9903,30.0,27.0,11111222
Beacon,ioos:station:wmo:42874:2,2021-11-02T15:42:00Z,27.0315,-90.9903,30.0,27.0,11111222
Beacon,ioos:station:wmo:42874:2,2021-11-02T15:51:00Z,27.0315,-90.9903,30.0,27.1,11111222
Beacon,ioos:station:wmo:42874:2,2021-11-02T16:02:00Z,27.0315,-90.9903,30.0,27.1,11111222
Beacon,ioos:station:wmo:42874:2,2021-11-02T16:12:00Z,27.0315,-90.9902,30.0,27.1,11111222
Beacon,ioos:station:wmo:42874:2,2021-11-02T16:21:00Z,27.0315,-90.9904,30.0,27.1,11111222
Beacon,ioos:station:wmo:42874:2,2021-11-02T16:32:00Z,27.0315,-90.9904,30.0,27.1,11111222
Beacon,ioos:station:wmo:42874:2,2021-11-02T16:42:00Z,27.0315,-90.9904,30.0,27.1,11111222
Beacon,ioos:station:wmo:42874:2,2021-11-02T16:53:00Z,27.0315,-90.9904,30.0,27.1,11111222
Beacon,ioos:station:wmo:42874:2,2021-11-02T17:02:00Z,27.0315,-90.9904,30.0,27.1,11111222
Beacon,ioos:station:wmo:42874:2,2021-11-02T17:12:00Z,27.0315,-90.9903,30.0,27.1,11111222
Beacon,ioos:station:wmo:42874:2,2021-11-02T17:21:00Z,27.0315,-90.9903,30.0,27.1,11111222
Beacon,ioos:station:wmo:42874:2,2021-11-02T17:32:00Z,27.0315,-90.9903,30.0,27.1,11111222
Beacon,ioos:station:wmo:42874:2,2021-11-02T17:42:00Z,27.0315,-90.9902,30.0,27.1,11111222
Beacon,ioos:station:wmo:42874:2,2021-11-02T17:52:00Z,27.0315,-90.9902,30.0,27.1,11111222
Beacon,ioos:station:wmo:42874:2,2021-11-02T18:02:00Z,27.0315,-90.9902,30.0,27.1,11111222
Beacon,ioos:station:wmo:42874:2,2021-11-02T18:12:00Z,27.0315,-90.9902,30.0,27.1,11111222
Beacon,ioos:station:wmo:42874:2,2021-11-02T18:22:00Z,27.0314,-90.9905,30.0,27.1,11111222
Beacon,ioos:station:wmo:42874:2,2021-11-02T18:32:00Z,27.0314,-90.9904,30.0,27.1,11111222
Beacon,ioos:station:wmo:42874:2,2021-11-02T18:42:00Z,27.0315,-90.9904,30.0,27.0,11111222
Beacon,ioos:station:wmo:42874:2,2021-11-02T18:51:00Z,27.0314,-90.9904,30.0,27.0,11111222
Beacon,ioos:station:wmo:42874:2,2021-11-02T19:02:00Z,27.0314,-90.9904,30.0,27.0,11111222
Beacon,ioos:station:wmo:42874:2,2021-11-02T19:11:00Z,27.0314,-90.9904,30.0,27.0,11111222
Beacon,ioos:station:wmo:42874:2,2021-11-02T19:22:00Z,27.0315,-90.9904,30.0,27.0,11111222
Beacon,ioos:station:wmo:42874:2,2021-11-02T19:32:00Z,27.0315,-90.9904,30.0,27.0,11111222
Beacon,ioos:station:wmo:42874:2,2021-11-02T19:42:00Z,27.0315,-90.9904,30.0,27.0,11111222
Beacon,ioos:station:wmo:42874:2,2021-11-02T19:52:00Z,27.0315,-90.9903,30.0,27.0,11111222
Beacon,ioos:station:wmo:42874:2,2021-11-02T20:02:00Z,27.0315,-90.9903,30.0,27.0,11111222